CZ-6A DEB, 56648

Orbit data source: Space-Track

CZ-6A DEB, 56648 is space debris in SSO originally from a launch on Fri, 11 Nov 2022 UTC launched from the Taiyaun Space Center, China (TSC). Debris objects in space refer to the collection of defunct objects orbiting the Earth. Examples of debris include non-operational satellites, rocket bodies, and fragments generated from explosions, collisions, or faulty payload assembly.

Loading next visibility...
Identifier
56648, 2022-151AFY
Orbit
SSO
Country
Flag of CNCN / PRC
Related business
Manufacturer
SAST
Mission
Spacecraft
Bus & Motor
Unknown
Mass
Unknown
Launch date (UTC)
2022-11-11 (4 years ago)
Launch vehicle
Unknown
Launch site
Taiyaun Space Center, China (TSC)
Object type
Payload
Rocket body
Debris
Shape & HBR
Unknown shape, 0.1 m
Radar Cross Section
Small (<0.1 m²)

Expand to show TLE details & history
Last TLE update: 1 day ago

TLE from 1 day ago
0 CZ-6A DEB
1 56648U 22151AFY 26235.24945700  .00000239  00000-0  15778-3 0  9994
2 56648  98.8380 230.2761 0052312 161.8939 198.4110 14.10072235171624
Epoch: 2026-08-23T05:59Z
TLE epoch observation values (Epoch: 2026-08-23T05:59:13.084Z)
Latitude
-0.00002°
Longitude
168.92337°
Altitude
897.97 km
Speed
7.385 km/s
True Right ascension
15h 21m 06s
True Declination
0° 00' 00"
Sunlit
Object was in daylight at epoch
Visualization orbit readout
Latitude
Unknown
Longitude
Unknown
Altitude
Unknown
Speed
Unknown
Apparent Right ascension
Unknown
Apparent Declination
Unknown
Sunlit
N/A
Visualization observer readout
Local Sidereal Time
08:05:26
Azimuth
Unknown
Elevation
Unknown
Doppler factor
Unknown
Orbital elements
Apogee altitude
894.147 km
Perigee altitude
818.458 km
Semi-major axis
7,234.439 km
Eccentricity
0.00523
Inclination
98.838°
RAAN
230.2761°
Arg. of periapsis
161.8939°
True anomaly
198.22284°
Mean anomaly
198.411°
Eccentric anomaly
198.3168°
Mean motion
3.52725 °/min
Orbital period
102.06 mins
BSTAR
0.00015778
Loading maneuver chart data...
Computing Atmospheric mass density...
Loading historical data...
Loading historical data...
Loading historical data...
Loading historical data...
Loading historical data...
Loading historical data...
Loading historical data...

Documentation

Showing up to 5 results
|